Temperature
7 7 7 7 7 7 7 6 6 6 6 6 7 8 8 7 7 8 8 8 8 8 9 10 9 9 10 10 10 10 11 11 11 11 11 11 10 9
6 6 7 7 7 6 6 6 6 6 5 6 6 6 7 7 7 7 8 8 7 8 8 9 9 9 9 10 10 10 10 10 11 11 11 11 11 9
6 6 6 6 6 6 6 6 5 5 5 5 5 5 6 6 7 7 7 7 7 7 7 8 9 9 9 9 10 10 10 10 10 10 10 10 10 10
5 5 5 6 6 6 6 5 5 5 4 4 5 5 5 6 6 6 6 7 7 7 7 7 8 8 9 9 9 10 9 10 10 9 10 10 10 10
3 4 4 5 5 5 5 5 4 4 4 4 4 4 5 5 5 6 6 6 6 7 7 7 7 8 8 8 9 9 9 9 10 9 9 9 9 9
2 2 3 3 3 3 3 3 3 3 3 3 3 4 4 4 5 5 5 6 6 6 6 6 7 7 7 8 8 8 8 8 9 9 9 9 9 9
1 1 1 1 2 2 2 1 1 1 2 2 2 3 3 3 3 3 3 5 5 5 5 6 6 6 6 7 7 8 8 8 8 9 9 9 9 8
0 0 0 1 1 1 1 0 0 0 0 0 0 1 2 2 1 1 1 2 3 5 4 5 6 6 6 6 7 7 7 8 8 8 8 8 8 8
-2 -2 -1 -1 -1 -1 -2 -2 -1 -1 -1 -2 -2 -1 -1 0 -0 -0 0 1 2 3 3 3 4 5 6 6 6 7 7 7 7 7 8 8 8 8
-4 -4 -3 -3 -3 -4 -4 -4 -3 -3 -3 -3 -3 -3 -2 -1 -2 -1 -1 -0 1 2 2 2 3 4 5 6 6 6 6 6 7 7 7 7 7 7
-5 -5 -5 -5 -6 -6 -6 -6 -5 -4 -4 -4 -3 -3 -2 -2 -2 -2 -2 -1 -0 1 1 2 2 3 3 4 5 6 6 6 6 6 6 7 7 7
-6 -6 -6 -8 -8 -8 -8 -7 -7 -6 -6 -5 -4 -3 -3 -2 -1 -2 -3 -2 -2 -1 0 1 2 2 2 4 5 5 5 5 6 6 6 6 6 6
-7 -7 -7 -8 -8 -8 -8 -8 -8 -8 -7 -6 -5 -4 -3 -3 -2 -2 -3 -3 -3 -2 -1 -0 0 1 2 2 4 5 5 5 5 5 5 5 5 5
-8 -8 -8 -8 -7 -7 -7 -8 -8 -8 -7 -7 -6 -5 -5 -4 -3 -3 -3 -3 -3 -2 -2 -1 -1 -0 1 2 2 3 4 5 5 5 5 5 5 5
-9 -9 -9 -8 -8 -7 -7 -7 -7 -8 -8 -8 -8 -7 -6 -5 -5 -4 -3 -3 -3 -2 -2 -2 -1 -1 -0 1 1 2 3 4 4 4 4 4 4 4
-10 -9 -9 -9 -9 -9 -8 -8 -8 -9 -9 -9 -9 -8 -7 -7 -6 -5 -5 -4 -4 -3 -2 -2 -1 -1 -1 0 1 1 2 3 3 4 4 4 4 4
-11 -10 -10 -9 -9 -9 -9 -9 -9 -9 -10 -10 -10 -9 -8 -8 -7 -7 -7 -7 -7 -6 -4 -3 -2 -2 -1 -0 1 1 2 2 3 3 3 3 3 3
-11 -11 -11 -11 -11 -11 -11 -11 -10 -11 -11 -11 -11 -10 -10 -10 -9 -8 -8 -8 -8 -7 -6 -5 -4 -3 -2 -1 0 1 1 2 2 2 3 2 2 2
-12 -12 -13 -13 -13 -13 -12 -12 -12 -12 -12 -12 -12 -11 -11 -11 -11 -10 -9 -9 -8 -8 -7 -6 -5 -4 -3 -1 -0 1 1 2 1 1 1 2 2 1
-13 -13 -14 -14 -14 -14 -13 -13 -13 -13 -13 -12 -12 -12 -11 -11 -12 -11 -11 -10 -9 -8 -7 -6 -5 -4 -3 -2 -1 -1 -0 1 1 1 1 1 1 0
-14 -14 -14 -14 -14 -14 -14 -14 -14 -13 -13 -13 -12 -12 -11 -12 -12 -11 -10 -9 -9 -8 -7 -6 -4 -3 -2 -2 -1 -1 -1 -1 0 1 1 0 -1 -2
-15 -15 -15 -15 -15 -15 -15 -15 -14 -14 -13 -13 -12 -12 -12 -12 -12 -11 -10 -9 -9 -8 -7 -5 -4 -3 -2 -2 -1 -1 -2 -3 -2 -1 -0 -0 -1 -2
-16 -15 -15 -15 -15 -15 -15 -15 -14 -14 -13 -13 -12 -12 -12 -12 -11 -11 -10 -9 -9 -8 -7 -6 -4 -3 -3 -2 -3 -3 -4 -4 -4 -3 -3 -2 -1 -1
Wind_Speed
7 7 6 5 5 5 5 5 4 5 5 5 4 4 4 6 12 12 12 16 21 22 21 21 21 21 22 25 30 36 34 27 25 26 26 27 26 26
5 6 6 5 5 5 5 5 5 5 6 4 5 5 6 7 13 12 14 19 20 21 20 18 20 20 20 23 28 31 29 27 27 28 29 28 26 25
6 6 7 6 5 5 4 4 4 4 5 5 4 5 6 8 9 8 11 11 11 18 20 17 17 19 19 21 25 30 32 31 30 31 31 30 29 26
7 6 7 5 6 4 4 4 3 3 4 6 4 4 5 7 9 9 8 8 9 15 18 17 16 16 19 20 24 29 32 32 32 32 32 31 29 27
4 4 4 2 3 1 2 1 1 1 3 4 5 4 4 6 8 9 9 8 8 13 15 15 14 15 17 20 23 27 30 31 32 32 30 30 29 29
9 8 7 6 4 2 1 1 1 2 2 4 5 5 5 6 6 8 10 7 7 7 10 9 10 12 15 18 22 24 27 30 33 32 32 31 30 30
10 10 10 13 14 10 6 5 3 2 3 4 6 6 5 5 6 6 10 10 9 5 5 5 5 6 7 12 18 22 26 30 32 33 33 33 32 33
9 9 9 11 13 14 13 12 10 7 6 5 6 8 8 7 7 8 9 11 8 3 4 6 4 7 7 6 12 18 23 27 30 32 33 33 33 33
7 7 7 9 10 7 9 12 11 13 12 9 9 9 10 9 9 11 10 12 12 7 4 6 4 8 8 8 14 16 19 24 26 29 32 33 34 34
7 6 6 7 9 10 9 7 6 8 12 9 8 10 11 10 10 12 13 14 13 9 7 8 6 6 7 9 14 16 17 20 24 27 30 32 34 35
6 7 8 7 12 16 11 9 8 8 12 15 18 19 23 24 20 12 12 13 13 8 6 6 6 6 6 8 11 17 18 18 21 25 28 30 31 32
4 6 11 11 14 15 10 8 8 9 10 11 13 16 16 18 21 13 10 13 13 9 6 6 6 5 5 6 8 9 12 18 21 23 25 26 27 21
4 5 6 14 15 15 11 6 11 12 8 7 9 9 9 10 10 10 9 10 13 12 7 6 6 7 8 5 4 8 10 10 12 15 21 25 27 23
5 5 7 15 15 13 10 11 15 12 7 8 8 8 8 9 10 13 15 15 14 14 11 11 10 10 10 9 6 4 7 8 10 10 10 16 23 28
4 9 12 13 12 9 12 14 11 7 7 8 9 10 10 11 12 12 13 14 15 15 13 13 14 13 14 12 7 5 5 7 9 9 9 9 10 11
3 6 10 11 9 10 10 9 7 7 8 8 9 11 11 11 12 11 12 12 12 13 12 13 14 15 16 15 11 8 7 6 7 9 8 7 8 10
4 4 5 6 6 6 7 7 7 8 8 8 9 10 11 11 12 11 12 12 13 14 13 10 11 13 16 16 12 12 10 7 7 9 8 7 7 9
5 4 5 5 6 7 8 8 8 9 9 10 10 10 12 12 13 12 12 13 14 14 14 12 10 10 12 14 16 14 13 10 6 7 6 7 7 7
3 3 4 5 6 6 7 7 9 9 9 10 11 11 12 13 13 13 13 13 14 15 14 13 13 13 16 14 5 7 12 10 9 6 4 4 6 9
2 4 4 5 5 5 7 7 8 9 9 9 10 11 11 12 13 14 14 15 16 16 16 14 14 15 17 13 6 2 5 9 9 8 5 5 6 9
5 5 5 6 6 6 7 8 9 10 10 11 11 12 12 13 14 14 15 20 19 16 17 15 14 15 7 8 7 5 5 8 7 7 8 7 5 3
5 5 6 6 6 6 7 8 9 10 10 11 11 12 13 14 15 17 16 16 15 15 16 12 7 6 5 7 9 9 9 12 15 18 13 8 9 9
6 6 6 7 7 6 7 8 10 11 11 12 13 13 14 15 15 15 16 14 13 12 8 4 1 2 5 11 14 15 18 16 13 14 13 17 20 22
Wind_Direction
234 232 228 234 218 211 206 197 207 256 274 272 278 287 270 268 266 262 253 258 264 263 255 245 238 236 238 237 231 223 212 199 196 199 206 210 214 215
237 232 235 236 226 214 209 208 204 220 256 256 257 276 288 285 281 271 262 258 261 270 271 262 243 233 235 236 230 215 201 195 196 199 203 204 209 213
258 240 244 236 221 216 204 200 204 201 248 272 266 283 287 282 285 276 269 261 261 268 271 275 261 236 231 234 223 203 196 195 198 202 202 202 205 207
275 263 256 245 225 212 196 196 197 201 227 274 288 294 289 287 285 282 276 268 260 263 264 265 274 251 229 225 214 201 198 196 198 204 204 201 201 203
334 313 293 255 227 172 157 167 208 231 229 262 284 283 292 297 300 294 283 274 264 261 258 258 264 265 238 222 213 204 200 198 198 202 203 199 198 201
38 33 30 39 40 39 30 334 305 297 277 274 282 284 280 293 297 300 300 290 275 262 256 253 253 264 250 229 218 209 204 202 201 200 200 199 197 200
36 30 33 33 29 25 17 9 356 314 297 288 291 294 290 301 299 301 300 301 288 254 251 240 235 248 250 239 227 217 210 207 205 203 202 201 199 200
33 28 28 28 18 11 2 357 355 344 329 306 297 295 296 290 290 293 297 298 294 266 242 257 212 239 243 238 234 221 215 213 210 206 204 204 203 203
28 27 25 16 9 347 352 2 355 342 329 313 301 299 301 299 296 294 287 284 282 281 261 267 240 244 243 240 243 233 218 215 214 212 208 206 204 205
14 17 14 357 348 353 359 355 348 341 324 315 300 297 298 294 283 284 284 282 278 268 239 262 247 235 238 232 231 229 226 218 215 215 213 209 207 206
8 6 1 343 341 347 350 341 339 330 325 318 315 310 305 300 295 290 286 285 280 269 230 242 251 241 233 231 225 221 224 225 222 219 217 214 209 207
3 4 354 341 337 341 341 340 329 316 321 325 318 311 305 300 298 286 276 278 282 281 250 235 243 237 252 232 221 218 220 223 223 224 221 216 210 209
360 349 335 340 339 337 340 336 315 327 344 324 307 302 304 304 305 303 293 279 274 271 277 277 259 241 244 248 237 217 213 215 218 225 225 221 214 207
347 327 328 341 343 346 345 333 337 346 337 318 311 306 306 306 307 308 304 298 287 282 278 273 269 259 252 243 239 230 210 208 211 215 212 217 217 207
325 337 344 348 350 348 343 350 356 349 332 323 313 306 305 302 300 298 297 293 288 282 274 265 265 265 257 248 222 205 206 206 207 211 202 202 206 199
344 353 352 349 351 347 348 348 344 330 324 316 307 303 301 299 296 296 299 300 295 287 271 258 256 255 258 248 225 204 195 193 197 206 197 190 193 190
15 11 354 348 346 342 338 337 334 328 323 315 310 307 304 301 297 296 294 292 285 283 281 268 253 252 251 246 226 208 197 194 191 186 183 186 185 176
19 353 342 337 333 330 329 327 325 322 321 317 310 306 303 301 299 297 293 286 281 277 274 272 264 260 260 249 226 202 194 190 179 166 160 171 159 145
6 324 316 316 315 316 314 311 310 309 309 304 301 300 300 298 296 295 293 288 282 278 273 267 260 252 251 245 241 204 182 173 169 162 133 126 149 150
296 289 295 304 305 304 306 303 301 302 300 298 296 294 294 294 293 293 291 287 285 283 278 266 255 245 240 238 196 142 134 155 164 158 123 92 94 124
309 306 298 299 299 298 299 300 298 297 296 298 297 295 296 296 294 293 291 287 285 282 276 268 259 238 205 159 141 126 96 75 110 146 137 121 108 106
286 290 291 287 285 286 291 296 298 297 297 298 299 300 298 296 297 296 292 289 285 280 275 267 237 185 159 166 149 126 105 93 83 84 89 119 149 155
285 289 291 295 297 299 298 301 300 299 298 298 298 298 297 297 297 294 290 286 283 279 266 256 212 96 112 129 125 119 112 107 99 88 81 95 104 112
Height
1435 1434 1433 1434 1435 1435 1435 1436 1436 1433 1431 1430 1430 1430 1429 1428 1428 1427 1427 1426 1426 1427 1428 1430 1432 1435 1439 1444 1449 1455 1460 1462 1467 1473 1478 1482 1486 1491
1429 1427 1427 1428 1428 1429 1430 1430 1430 1430 1426 1425 1426 1426 1425 1423 1422 1421 1420 1421 1421 1421 1421 1421 1423 1426 1430 1434 1439 1445 1450 1454 1460 1466 1472 1475 1479 1483
1421 1421 1421 1421 1421 1422 1423 1424 1425 1425 1422 1420 1420 1420 1419 1418 1416 1415 1414 1414 1414 1414 1414 1414 1415 1418 1421 1425 1430 1435 1440 1446 1452 1459 1465 1469 1472 1476
1413 1412 1413 1414 1414 1416 1417 1418 1419 1419 1417 1415 1414 1414 1413 1413 1411 1409 1408 1407 1406 1407 1406 1406 1407 1410 1413 1417 1421 1426 1431 1437 1444 1451 1456 1461 1465 1469
1404 1404 1405 1406 1407 1409 1410 1411 1412 1413 1412 1411 1409 1408 1408 1407 1405 1403 1402 1401 1400 1399 1399 1398 1399 1402 1405 1409 1413 1418 1422 1428 1434 1441 1448 1453 1457 1462
1398 1398 1399 1400 1401 1403 1404 1405 1406 1406 1406 1405 1404 1403 1402 1401 1400 1397 1395 1394 1393 1392 1391 1391 1392 1395 1398 1401 1406 1410 1414 1419 1425 1431 1437 1444 1449 1454
1394 1394 1395 1395 1396 1398 1399 1399 1399 1399 1399 1398 1397 1396 1395 1395 1394 1392 1390 1387 1385 1386 1385 1385 1386 1387 1390 1394 1398 1401 1406 1410 1415 1421 1427 1433 1439 1444
1392 1391 1391 1392 1392 1393 1393 1393 1394 1394 1393 1392 1391 1390 1388 1388 1387 1386 1384 1381 1378 1379 1379 1379 1380 1380 1383 1387 1390 1394 1397 1401 1406 1410 1416 1421 1427 1433
1389 1388 1387 1387 1387 1387 1386 1387 1387 1387 1387 1386 1385 1383 1381 1380 1380 1379 1377 1375 1372 1373 1374 1371 1373 1373 1376 1379 1381 1385 1389 1392 1397 1401 1405 1409 1416 1422
1386 1385 1383 1382 1382 1382 1380 1380 1380 1380 1379 1379 1378 1375 1374 1372 1372 1371 1370 1367 1364 1365 1367 1365 1365 1367 1369 1371 1373 1375 1379 1383 1387 1392 1397 1401 1406 1412
1383 1381 1379 1378 1377 1377 1375 1374 1373 1373 1373 1372 1371 1369 1367 1365 1364 1362 1361 1360 1357 1357 1359 1359 1358 1359 1360 1362 1364 1367 1370 1373 1377 1381 1386 1391 1396 1402
1379 1377 1375 1374 1373 1372 1370 1369 1367 1366 1365 1364 1364 1362 1360 1358 1357 1355 1353 1352 1351 1350 1351 1352 1351 1352 1350 1351 1354 1357 1360 1363 1367 1370 1374 1380 1385 1391
1375 1373 1371 1370 1369 1367 1366 1364 1362 1361 1358 1357 1356 1355 1353 1351 1349 1347 1345 1344 1343 1342 1344 1345 1344 1345 1344 1343 1344 1347 1351 1354 1357 1360 1363 1368 1373 1378
1372 1370 1368 1366 1365 1363 1360 1358 1357 1354 1351 1349 1348 1347 1345 1343 1341 1339 1337 1335 1334 1333 1334 1335 1335 1337 1337 1336 1337 1337 1340 1344 1348 1351 1353 1357 1362 1366
1369 1366 1364 1362 1360 1359 1356 1353 1350 1348 1345 1343 1341 1339 1338 1335 1332 1329 1327 1325 1323 1323 1324 1325 1326 1326 1328 1327 1328 1330 1332 1334 1338 1342 1345 1348 1352 1357
1364 1362 1360 1358 1356 1354 1352 1349 1346 1344 1341 1338 1335 1333 1330 1327 1324 1321 1317 1313 1310 1309 1311 1313 1314 1316 1316 1317 1318 1319 1323 1326 1329 1334 1337 1340 1345 1349
1361 1357 1355 1353 1351 1348 1346 1344 1341 1339 1336 1333 1329 1326 1322 1319 1316 1313 1309 1305 1301 1298 1297 1298 1300 1302 1303 1305 1305 1307 1311 1316 1321 1325 1329 1332 1336 1340
1356 1353 1350 1347 1345 1342 1339 1337 1335 1333 1330 1327 1323 1320 1316 1312 1307 1304 1301 1297 1293 1289 1287 1287 1288 1290 1290 1290 1292 1294 1299 1306 1311 1316 1320 1324 1329 1333
1352 1349 1346 1343 1340 1338 1335 1333 1330 1328 1326 1323 1319 1315 1310 1305 1301 1296 1292 1288 1284 1280 1278 1277 1278 1280 1280 1279 1279 1283 1287 1294 1302 1307 1311 1316 1321 1327
1347 1345 1342 1339 1336 1333 1331 1328 1326 1323 1320 1317 1313 1309 1304 1298 1293 1289 1285 1281 1276 1272 1268 1266 1266 1267 1268 1270 1272 1274 1279 1285 1293 1299 1304 1310 1317 1323
1343 1340 1338 1335 1332 1329 1325 1322 1319 1316 1314 1310 1306 1301 1296 1290 1286 1281 1277 1272 1269 1264 1259 1255 1254 1255 1257 1262 1264 1266 1273 1280 1286 1291 1297 1304 1311 1318
1339 1336 1333 1330 1327 1323 1320 1316 1313 1310 1307 1303 1298 1293 1288 1283 1279 1274 1269 1264 1259 1254 1249 1245 1245 1245 1247 1249 1253 1258 1266 1275 1281 1286 1292 1298 1303 1310
1334 1330 1327 1324 1321 1317 1314 1310 1307 1305 1302 1298 1293 1288 1282 1277 1273 1267 1262 1257 1251 1245 1241 1238 1238 1238 1240 1243 1247 1253 1261 1269 1276 1282 1289 1294 1300 1307